Findlay, OH

4:15 PM EDT on April 23, 2017 (GMT -0400)
Findlay

Weather History for KFDY - February, 2014

Change the Weather History Date:

Saturday, February 22, 2014

  Actual Average Record
Temperature  
Mean Temperature 36 °F -  
Max Temperature 39 °F 43 °F 64 °F (1983)
Min Temperature 33 °F 26 °F -7 °F (1963)
Degree Days  
Heating Degree Days 29    
Moisture  
Dew Point 27 °F    
Average Humidity 73    
Maximum Humidity 96    
Minimum Humidity 50    
Precipitation  
Precipitation 0.06 in - - ()
Sea Level Pressure  
Sea Level Pressure 29.97 in    
Wind  
Wind Speed 15 mph (West)    
Max Wind Speed 23 mph    
Max Gust Speed 30 mph    
Visibility 9 miles    
Events Rain , Snow    
Averages and records for this station are not official NWS values.
T = Trace of Precipitation, MM = Missing Value Source: NWS Daily Summary

Daily Weather History Graph

Daily Weather History Graph

Search for Another Location

Airport or City:

Trip Planner

Search our weather history database for the weather conditions in past years. The results will help you decide how hot, cold, wet, or windy it might be!

Date:

Astronomy

Feb. 22, 2014 Rise Set
Actual Time 7:19 AM EST 6:17 PM EST
Civil Twilight 6:51 AM EST 6:45 PM EST
Nautical Twilight 6:19 AM EST 7:17 PM EST
Astronomical Twilight 5:47 AM EST 7:49 PM EST
Moon 1:14 AM EST (2/22) 11:26 AM EST (2/22)
Length of Visible Light 11h 53m
Length of Day
10h 58m
Waning Gibbous, 50% of the Moon is Illuminated
Feb 22
Waning Gibbous
Feb 22
Last Quarter
Mar 1
New
Mar 8
First Quarter
Mar 16
Full

Hourly Weather History & Observations

Time (EST) Temp. Windchill Dew Point Humidity Pressure Visibility Wind Dir Wind Speed Gust Speed Precip Events Conditions
12:53 AM 34.0 °F 24.2 °F 24.1 °F 67% 29.87 in 10.0 mi SSW 15.0 mph - N/A   Overcast
1:53 AM 35.1 °F 24.5 °F 24.1 °F 64% 29.84 in 10.0 mi South 18.4 mph - N/A   Overcast
2:53 AM 36.0 °F 25.6 °F 23.0 °F 59% 29.82 in 10.0 mi SSW 18.4 mph - N/A   Mostly Cloudy
3:53 AM 37.9 °F 27.9 °F 24.1 °F 57% 29.81 in 10.0 mi SW 19.6 mph - N/A   Clear
4:53 AM 37.9 °F 30.0 °F 25.0 °F 60% 29.84 in 10.0 mi SW 12.7 mph - N/A   Clear
5:53 AM 37.0 °F 25.9 °F 27.0 °F 67% 29.88 in 10.0 mi WSW 23.0 mph - N/A   Clear
6:53 AM 35.1 °F 24.1 °F 25.0 °F 67% 29.91 in 10.0 mi WSW 19.6 mph 27.6 mph N/A   Clear
7:53 AM 34.0 °F 21.8 °F 21.0 °F 59% 29.97 in 10.0 mi WSW 23.0 mph 29.9 mph N/A   Clear
8:53 AM 33.1 °F 21.9 °F 18.0 °F 54% 30.01 in 10.0 mi West 18.4 mph - N/A   Clear
9:53 AM 35.1 °F 25.5 °F 18.0 °F 50% 30.01 in 10.0 mi WSW 15.0 mph - N/A   Clear
10:53 AM 36.0 °F 27.5 °F 19.0 °F 50% 30.01 in 10.0 mi WSW 12.7 mph - N/A   Clear
11:53 AM 37.9 °F 29.2 °F 23.0 °F 55% 30.04 in 10.0 mi WSW 15.0 mph - N/A   Clear
12:53 PM 39.9 °F 31.1 °F 23.0 °F 51% 30.04 in 10.0 mi WSW 17.3 mph 24.2 mph N/A   Clear
1:53 PM 39.9 °F 31.4 °F 25.0 °F 55% 30.01 in 10.0 mi West 16.1 mph - N/A   Clear
2:53 PM 39.0 °F 32.8 °F 27.0 °F 62% 30.01 in 10.0 mi West 9.2 mph - N/A   Mostly Cloudy
3:53 PM 39.9 °F 34.5 °F 27.0 °F 60% 29.99 in 10.0 mi WSW 8.1 mph - N/A   Mostly Cloudy
4:53 PM 39.0 °F 33.4 °F 27.0 °F 62% 30.01 in 10.0 mi West 8.1 mph - N/A   Overcast
5:53 PM 34.0 °F 26.6 °F 28.9 °F 82% 30.01 in 10.0 mi WNW 9.2 mph - N/A   Overcast
6:53 PM 33.1 °F 26.1 °F 30.0 °F 89% 30.01 in 7.0 mi WNW 8.1 mph - 0.00 in Snow Light Snow
7:53 PM 33.1 °F 25.5 °F 30.0 °F 89% 30.01 in 10.0 mi WNW 9.2 mph - 0.00 in   Overcast
8:53 PM 33.1 °F 25.5 °F 30.9 °F 92% 30.01 in 7.0 mi West 9.2 mph - 0.00 in Rain Light Rain
9:25 PM 34.0 °F 25.5 °F 32.0 °F 92% 30.00 in 9.0 mi West 11.5 mph - 0.02 in Rain Light Rain
9:50 PM 35.6 °F 26.6 °F 33.8 °F 93% 29.99 in 8.0 mi WNW 13.8 mph - 0.03 in Rain Light Rain
9:53 PM 35.1 °F 25.5 °F 32.0 °F 89% 30.01 in 7.0 mi WNW 15.0 mph - 0.03 in Rain Light Rain
10:03 PM 35.1 °F 25.9 °F 33.1 °F 92% 29.99 in 9.0 mi WNW 13.8 mph - 0.00 in Rain Light Rain
10:48 PM 35.6 °F 27.1 °F 33.8 °F 93% 30.00 in 10.0 mi West 12.7 mph - 0.01 in Rain Light Rain
10:53 PM 35.1 °F 26.4 °F 33.1 °F 92% 30.01 in 9.0 mi West 12.7 mph - 0.01 in Rain Light Rain
11:14 PM 34.0 °F 26.0 °F 33.1 °F 96% 30.00 in 7.0 mi West 10.4 mph - 0.01 in Rain Light Rain
11:26 PM 34.0 °F 27.2 °F 32.0 °F 92% 30.00 in 7.0 mi West 8.1 mph - 0.01 in Snow Light Snow
11:53 PM 34.0 °F 28.0 °F 32.0 °F 92% 30.02 in 6.0 mi West 6.9 mph - 0.02 in Snow Light Snow